Погода в Вагаршапате

Армения     40°09′47″N   44°17′36″E
темп.,
°C
ветер,
м/с
пор.,
м/с
влажн.,
%
обл.,
%
осадки,
мм/ч
давл.,
гПа
погр.,
м
1 декабря, ср
ср101:00+9с11520 0.0 100711
04:00+10с33440 0.0 100616
07:00+9сз22555 0.0 100328
10:00+13ссз124026 0.1 100298
13:00+15ююв273485 0.1 10001081
16:00+14зюз111338100 0.4 9991150
19:00+6ююз586390 0.6 1006245
22:00+4в686273 0.7 1009396
2 декабря, чт
чт201:00+3ссв117352 0.0 101111
04:00+3вюв226851 0.0 1012116
07:00+1ссв22745 0.0 101515
10:00+3ююз11545 0.0 1017180
13:00+7ююв22390 0.0 1016785
16:00+8юв11270 0.0 10161217
19:00+4ссв33370 0.0 102036
22:00+2св22380 0.0 102323
3 декабря, пт
пт301:000всв11440 0.0 102512
04:00−1св11470 0.0 102710
07:00−1св11490 0.0 102810
10:00+2в124017 0.0 1029160
13:00+5ююв123619 0.0 1027689
16:00+6ююв11355 0.0 1025728
19:00+2с22420 0.0 102712
22:00+1ссв22420 0.0 102711
4 декабря, сб
сб401:000ссв11460 0.0 102710
04:00−1всв11490 0.0 102810
07:00−2всв11534 0.0 102810
10:00+1юв11410 0.0 1028103
13:00+5ююз113525 0.0 1025535
16:00+6зюз0132100 0.0 1023548
19:00+2с1140100 0.0 102411
22:00+1ссв114089 0.0 102410
5 декабря, вс
вс501:00+1всв114022 0.0 102310
04:000с11415 0.0 102310
07:00−1всв114438 0.0 102310
10:00+3в013471 0.0 102378
13:00+6юв2229100 0.0 1020415
16:00+6ююз0129100 0.1 1019397
19:00+3ююз0142100 0.1 102010
22:00+2ссз0044100 0.1 102010